• In India
  • List of Countries
  • For 7 days
  • Water Temperature
  • Satellite Maps
  • Weather Map
  • Weather Widgets
  • user-avatar
    Login

    Hourly Weather Francisco Pizarro

    Today, 11 December, Monday

    Time Temperature Precipitation Wind Pressure Humidity
    00:00 +26°C° 0 mm 3 mps 763 mmHg 93%
    01:00 +26°C° 0 mm 3 mps 762 mmHg 93%
    02:00 +25°C° 0 mm 3 mps 762 mmHg 93%
    03:00 +25°C° 0 mm 3 mps 762 mmHg 94%
    04:00 +25°C° 0 mm 3 mps 762 mmHg 95%
    05:00 +25°C° 0 mm 3 mps 762 mmHg 93%
    06:00 +25°C° 0 mm 4 mps 762 mmHg 92%
    07:00 +26°C° 0 mm 4 mps 762 mmHg 91%
    08:00 +27°C° 0 mm 3 mps 762 mmHg 83%
    09:00 +29°C° 0 mm 3 mps 762 mmHg 74%
    10:00 +31°C° 0 mm 3 mps 762 mmHg 66%
    11:00 +33°C° 0 mm 4 mps 762 mmHg 64%
    12:00 +33°C° 0 mm 4 mps 761 mmHg 63%
    13:00 +33°C° 0 mm 4 mps 761 mmHg 62%
    14:00 +33°C° 0.1 mm 4 mps 761 mmHg 63%
    15:00 +32°C° 0.1 mm 5 mps 760 mmHg 65%
    16:00 +32°C° 0.1 mm 5 mps 760 mmHg 66%
    17:00 +29°C° 0.1 mm 4 mps 760 mmHg 72%
    18:00 +28°C° 0.1 mm 4 mps 761 mmHg 78%
    19:00 +27°C° 0.1 mm 4 mps 761 mmHg 84%
    20:00 +27°C° 0 mm 4 mps 762 mmHg 86%
    21:00 +26°C° 0 mm 4 mps 762 mmHg 87%
    22:00 +26°C° 0 mm 4 mps 763 mmHg 89%
    23:00 +26°C° 0 mm 4 mps 763 mmHg 89%

    Tomorrow, 12 December, Tuesday

    Time Temperature Precipitation Wind Pressure Humidity
    00:00 +26°C° 0 mm 4 mps 763 mmHg 89%
    01:00 +26°C° 0 mm 4 mps 763 mmHg 89%
    02:00 +26°C° 0 mm 4 mps 762 mmHg 89%
    03:00 +26°C° 0 mm 4 mps 762 mmHg 89%
    04:00 +26°C° 0 mm 4 mps 762 mmHg 89%
    05:00 +26°C° 0 mm 4 mps 762 mmHg 88%
    06:00 +26°C° 0 mm 4 mps 762 mmHg 88%
    07:00 +26°C° 0 mm 3 mps 763 mmHg 87%
    08:00 +28°C° 0 mm 3 mps 763 mmHg 78%
    09:00 +30°C° 0 mm 3 mps 763 mmHg 69%
    10:00 +33°C° 0 mm 3 mps 763 mmHg 60%
    11:00 +33°C° 0 mm 4 mps 763 mmHg 58%
    12:00 +34°C° 0 mm 4 mps 762 mmHg 56%
    13:00 +34°C° 0 mm 4 mps 761 mmHg 54%
    14:00 +33°C° 0.1 mm 4 mps 761 mmHg 58%
    15:00 +33°C° 0.1 mm 4 mps 761 mmHg 61%
    16:00 +32°C° 0.1 mm 5 mps 760 mmHg 64%
    17:00 +29°C° 0.1 mm 4 mps 761 mmHg 71%
    18:00 +28°C° 0.1 mm 4 mps 761 mmHg 78%
    19:00 +27°C° 0.1 mm 3 mps 762 mmHg 84%
    20:00 +27°C° 0 mm 3 mps 762 mmHg 85%
    21:00 +26°C° 0 mm 3 mps 763 mmHg 86%
    22:00 +26°C° 0 mm 3 mps 763 mmHg 87%
    23:00 +26°C° 0.1 mm 2 mps 763 mmHg 88%

    Day after tomorrow, 13 December, Wednesday

    Time Temperature Precipitation Wind Pressure Humidity
    00:00 +26°C° 0.1 mm 2 mps 763 mmHg 89%
    01:00 +26°C° 0.1 mm 2 mps 763 mmHg 89%
    02:00 +25°C° 0 mm 2 mps 762 mmHg 90%
    03:00 +25°C° 0 mm 2 mps 762 mmHg 91%
    04:00 +25°C° 0 mm 2 mps 761 mmHg 91%
    05:00 +25°C° 0 mm 2 mps 762 mmHg 90%
    06:00 +25°C° 0 mm 2 mps 762 mmHg 90%
    07:00 +26°C° 0 mm 2 mps 762 mmHg 89%
    08:00 +28°C° 0 mm 2 mps 763 mmHg 79%
    09:00 +30°C° 0 mm 2 mps 763 mmHg 69%
    10:00 +34°C° 0 mm 2 mps 763 mmHg 59%
    11:00 +34°C° 0 mm 2 mps 763 mmHg 56%
    12:00 +34°C° 0 mm 3 mps 762 mmHg 53%
    13:00 +35°C° 0 mm 3 mps 761 mmHg 51%
    14:00 +34°C° 0 mm 3 mps 761 mmHg 55%
    15:00 +33°C° 0 mm 4 mps 760 mmHg 60%
    16:00 +32°C° 0 mm 4 mps 760 mmHg 64%
    17:00 +29°C° 0 mm 3 mps 760 mmHg 70%
    18:00 +28°C° 0 mm 3 mps 760 mmHg 76%
    19:00 +27°C° 0 mm 3 mps 761 mmHg 82%
    20:00 +27°C° 0 mm 2 mps 761 mmHg 83%
    21:00 +26°C° 0 mm 2 mps 762 mmHg 84%
    22:00 +26°C° 0 mm 2 mps 762 mmHg 85%
    23:00 +26°C° 0 mm 2 mps 762 mmHg 86%

    14 December, Thursday

    Time Temperature Precipitation Wind Pressure Humidity
    00:00 +26°C° 0 mm 2 mps 761 mmHg 87%
    01:00 +26°C° 0 mm 1 mps 761 mmHg 87%
    02:00 +26°C° 0 mm 1 mps 761 mmHg 87%
    03:00 +26°C° 0 mm 1 mps 761 mmHg 87%
    04:00 +26°C° 0 mm 1 mps 760 mmHg 87%
    05:00 +26°C° 0 mm 2 mps 761 mmHg 88%
    06:00 +26°C° 0 mm 2 mps 761 mmHg 88%
    07:00 +26°C° 0 mm 2 mps 761 mmHg 88%
    08:00 +28°C° 0 mm 2 mps 761 mmHg 79%
    09:00 +30°C° 0 mm 2 mps 761 mmHg 71%
    10:00 +32°C° 0 mm 2 mps 762 mmHg 63%
    11:00 +33°C° 0 mm 3 mps 761 mmHg 61%
    12:00 +33°C° 0 mm 4 mps 760 mmHg 60%
    13:00 +34°C° 0 mm 4 mps 760 mmHg 58%
    14:00 +33°C° 0 mm 4 mps 759 mmHg 62%
    15:00 +32°C° 0 mm 5 mps 759 mmHg 65%
    16:00 +30°C° 0 mm 5 mps 758 mmHg 68%
    17:00 +29°C° 0 mm 5 mps 759 mmHg 74%
    18:00 +28°C° 0 mm 4 mps 760 mmHg 79%
    19:00 +27°C° 0 mm 4 mps 760 mmHg 85%
    20:00 +27°C° 0 mm 4 mps 761 mmHg 86%
    21:00 +27°C° 0 mm 4 mps 761 mmHg 86%
    22:00 +27°C° 0 mm 4 mps 762 mmHg 87%
    23:00 +26°C° 0 mm 3 mps 761 mmHg 88%

    15 December, Friday

    Time Temperature Precipitation Wind Pressure Humidity
    00:00 +26°C° 0 mm 3 mps 761 mmHg 89%
    01:00 +26°C° 0 mm 3 mps 761 mmHg 90%
    02:00 +26°C° 0.1 mm 4 mps 760 mmHg 90%
    03:00 +26°C° 0.1 mm 4 mps 760 mmHg 90%
    04:00 +26°C° 0.1 mm 4 mps 760 mmHg 90%
    05:00 +26°C° 0.1 mm 4 mps 760 mmHg 90%
    06:00 +26°C° 0.1 mm 4 mps 761 mmHg 90%
    07:00 +26°C° 0.1 mm 4 mps 761 mmHg 90%
    08:00 +27°C° 0 mm 4 mps 761 mmHg 82%
    09:00 +29°C° 0 mm 4 mps 761 mmHg 74%
    10:00 +30°C° 0 mm 4 mps 762 mmHg 67%
    11:00 +32°C° 0 mm 4 mps 761 mmHg 63%
    12:00 +33°C° 0 mm 4 mps 760 mmHg 60%
    13:00 +34°C° 0 mm 4 mps 760 mmHg 57%
    14:00 +33°C° 0 mm 4 mps 759 mmHg 61%
    15:00 +32°C° 0 mm 5 mps 759 mmHg 65%
    16:00 +29°C° 0 mm 5 mps 759 mmHg 68%
    17:00 +29°C° 0 mm 4 mps 759 mmHg 73%
    18:00 +28°C° 0 mm 4 mps 760 mmHg 78%
    19:00 +27°C° 0 mm 3 mps 761 mmHg 83%
    20:00 +27°C° 0.1 mm 3 mps 761 mmHg 85%
    21:00 +27°C° 0.1 mm 2 mps 762 mmHg 87%
    22:00 +26°C° 0.1 mm 2 mps 762 mmHg 88%
    23:00 +26°C° 0.1 mm 2 mps 762 mmHg 89%

    16 December, Saturday

    Time Temperature Precipitation Wind Pressure Humidity
    00:00 +26°C° 0.1 mm 2 mps 761 mmHg 91%
    01:00 +26°C° 0.1 mm 3 mps 761 mmHg 92%
    02:00 +26°C° 0.2 mm 3 mps 761 mmHg 92%
    03:00 +26°C° 0.2 mm 3 mps 761 mmHg 92%
    04:00 +26°C° 0.2 mm 3 mps 760 mmHg 92%
    05:00 +26°C° 0.2 mm 3 mps 761 mmHg 91%
    06:00 +26°C° 0.2 mm 3 mps 761 mmHg 91%
    07:00 +26°C° 0.2 mm 3 mps 762 mmHg 91%
    08:00 +27°C° 0.1 mm 3 mps 762 mmHg 84%
    09:00 +28°C° 0.1 mm 3 mps 762 mmHg 78%
    10:00 +30°C° 0.1 mm 3 mps 762 mmHg 71%
    11:00 +30°C° 0.1 mm 4 mps 761 mmHg 69%
    12:00 +32°C° 0.1 mm 4 mps 761 mmHg 67%
    13:00 +32°C° 0.1 mm 4 mps 760 mmHg 65%
    14:00 +32°C° 0.1 mm 4 mps 759 mmHg 66%
    15:00 +32°C° 0.1 mm 4 mps 759 mmHg 67%
    16:00 +30°C° 0.1 mm 4 mps 758 mmHg 68%
    17:00 +29°C° 0 mm 4 mps 759 mmHg 73%
    18:00 +28°C° 0 mm 4 mps 759 mmHg 79%
    19:00 +27°C° 0 mm 3 mps 759 mmHg 84%
    20:00 +27°C° 0 mm 3 mps 760 mmHg 85%
    21:00 +27°C° 0 mm 3 mps 760 mmHg 86%
    22:00 +26°C° 0 mm 3 mps 760 mmHg 87%
    23:00 +26°C° 0 mm 3 mps 760 mmHg 88%
    Show more